Regional Weather Roundup
Issued by NWS Little Rock, AR

Home | Current Version | Previous Version | Graphics & Text | Print | Product List | Glossary On
Versions: 1 2 3 4 5 6 7 8 9 10 11 12 13 14 15 16 17 18 19 20 21 22 23 24 25 26 27 28 29 30 31 32 33 34 35 36 37 38 39 40 41 42 43 44 45 46 47 48 49 50
000
ASUS44 KLZK 282305
RWRLZK

WEATHER ROUNDUP FOR ARKANSAS
NATIONAL WEATHER SERVICE LITTLE ROCK AR
600 PM CDT TUE JUL 28 2015

NOTE: "FAIR" INDICATES FEW OR NO CLOUDS BELOW 12,000 FEET WITH NO
SIGNIFICANT WEATHER AND/OR OBSTRUCTIONS TO VISIBILITY.

ARZ001-003-010-029-290000-
NORTHWEST ARKANSAS

CITY           SKY/WX    TMP DP  RH WIND       PRES   REMARKS
FAYETTEVILLE   SUNNY     90  74  59 S10       29.97F HX  99
FORT SMITH     MOSUNNY   98  69  38 VRB5      29.91F HX 104
HARRISON       SUNNY     90  73  57 S9        29.98F HX  98
BENTONVILLE    SUNNY     91  70  49 S8G16     29.99F HX  97
ROGERS         MOSUNNY   92  73  53 SW12G17   29.98F HX 100
SILOAM SPGS    SUNNY     93  70  46 S12       29.96F HX  99
HIGHFILL       SUNNY     91  75  59 S10       29.97F HX 101
SPRINGDALE     MOSUNNY   91  73  55 S10G17    29.99F HX 100
$$

ARZ004-005-016-290000-
NORTH CENTRAL ARKANSAS

CITY           SKY/WX    TMP DP  RH WIND       PRES   REMARKS
BATESVILLE     SUNNY     95  75  52 S6        29.93F HX 107
FLIPPIN        SUNNY     93  72  49 S6        29.94F HX 100
MTN HOME       SUNNY     92  74  55 S6        29.95F HX 101
$$

ARZ040-041-290000-
WEST CENTRAL ARKANSAS

CITY           SKY/WX    TMP DP  RH WIND       PRES   REMARKS
MENA           MOSUNNY   97  70  41 E6        29.98F HX 103
MOUNT IDA      SUNNY     96  70  42 VRB3      29.95F HX 102
$$

ARZ009-017-025-026-028-290000-
NORTHEAST ARKANSAS

CITY           SKY/WX    TMP DP  RH WIND       PRES   REMARKS
JONESBORO      SUNNY     92  77  61 SW8       29.92F HX 105
NEWPORT        SUNNY     96  76  52 S9G21     29.93F HX 109
WALNUT RIDGE   SUNNY     95  73  49 SW10      29.91F HX 105
BLYTHEVILLE    SUNNY     93  78  61 VRB6      29.92F HX 108
$$

ARZ022-023-033-042-044-290000-
CENTRAL ARKANSAS

CITY           SKY/WX    TMP DP  RH WIND       PRES   REMARKS
LITTLE ROCK    MOSUNNY   96  72  45 S9        29.93F HX 104
N LITTLE ROCK  MOSUNNY   97  74  47 S9        29.93F HX 108
JACKSONVILLE   SUNNY     99  72  41 S9        29.93F HX 107
SEARCY         SUNNY     95  78  58 S8        29.94F HX 111
HOT SPRINGS    SUNNY     97  69  40 SW7       29.95F HX 103
RUSSELLVILLE   SUNNY     98  72  42 E3        29.92F HX 107
CLINTON        FAIR      95  77  55 CALM      29.94F HX 109
$$

ARZ036-290000-
EAST ARKANSAS

CITY           SKY/WX    TMP DP  RH WIND       PRES   REMARKS
WEST MEMPHIS   MOSUNNY   93  78  61 SW6       29.93F HX 108
$$

ARZ050-053-066-070-073-290000-
SOUTHWEST ARKANSAS

CITY           SKY/WX    TMP DP  RH WIND       PRES   REMARKS
ARKADELPHIA    FAIR     100  73  41 S9        29.94F HX 110
CAMDEN         SUNNY     99  68  36 SE5       29.94F HX 104
TEXARKANA      SUNNY     97  69  40 S8        29.94F HX 103
EL DORADO      SUNNY     96  70  42 S5        29.95F HX 102
DE QUEEN       SUNNY     96  71  44 S5        29.92F HX 103
$$

ARZ056-057-069-290000-
SOUTHEAST ARKANSAS

CITY           SKY/WX    TMP DP  RH WIND       PRES   REMARKS
PINE BLUFF     SUNNY     96  72  45 W7        29.94F HX 104
STUTTGART      SUNNY     99  73  44 SW8       29.94F HX 109
MONTICELLO     SUNNY     96  72  45 S6        29.94F HX 104

$$





USA.gov is the U.S. government's official web portal to all federal, state and local government web resources and services.